Volver al catálogo

COSMOS 1104

ActivoNavegaciónPO
NORAD 11378·PAYLOAD·🇷🇺 Russia

Lanzado May 31, 1979 desde Plesetsk Cosmodrome

Loading…

Próximos Pases (próximas 24 horas)

TLE

ActualizadoSource: Space-Track

Época: Sep 14, 2026, 13:19 UTC

1 11378U 79046A   26257.55503435  .00000056  00000-0  42561-4 0  9991
2 11378  82.9511 354.2925 0031692 317.7851  53.0707 13.76000976373869

Sigue COSMOS 1104 en tiempo real con AllMySat

Download on the App Store